Home > Time Zones > World Clock > Weather > Oman > Seeb > Past weeks

Flag for Oman Weather past 2 weeks in Seeb, Oman

Now
84 °F

Clear.


Feels Like: 92 °F
Forecast: 82 / 95 °F
Wind: 1 mph from West

Location: International Airport


UV Index: 7 (High)

Visibility: 4 mi


Pressure: 29.77 "Hg

Humidity: 74%

Dew point: 75 °F

Location of SeebLocation

Historic Weather in Seeb

°F

Seeb temperature yesterday

Maximum temperature yesterday: 100 °F (at 8:50 AM)
Minimum temperature yesterday: 84 °F (at 3:50 AM)
Average temperature yesterday: 90 °F

Past Weeks' High & Low Weather Summary

 TemperatureHumidityPressure
High104 °F (Apr 17, 9:50 AM)94% (Apr 8, 3:50 AM)30.07 "Hg (Apr 8, 3:50 AM)
Low70 °F (Apr 7, 4:50 AM)12% (Apr 11, 9:50 PM)29.65 "Hg (Apr 17, 3:50 PM)
Average85 °F47%29.86 "Hg
* Reported Apr 4 9:50 PM — Apr 19 9:50 PM, Seeb, Weather by CustomWeather, © 2014

Note: Actual official high and low records may vary slightly from our data, if they occured in-between our weather recording intervals... More about our weather records

Advertising

Historic Weather Conditions — Data for Previous 24 hours

 ConditionsComfort  
Time TempWeatherWind HumidityBarometerVisibility
9:50 PM
Apr 19
84 °FClear.2 mph74%29.77 "Hg4 mi
8:50 PM86 °FClear.1 mph75%29.77 "Hg4 mi
7:50 PM86 °FClear.7 mph70%29.77 "Hg4 mi
6:50 PM88 °FClear.3 mph62%29.77 "Hg4 mi
5:50 PM91 °FClear.8 mph46%29.77 "Hg4 mi
4:50 PM91 °FClear.15 mph52%29.77 "Hg4 mi
3:50 PM93 °FClear.15 mph47%29.80 "Hg4 mi
2:50 PM95 °FClear.14 mph36%29.80 "Hg5 mi
1:50 PM95 °FClear.13 mph36%29.80 "Hg5 mi
12:50 PM95 °FClear.12 mph28%29.83 "Hg5 mi
11:50 AM95 °FClear.8 mph32%29.86 "Hg4 mi
10:50 AM93 °FClear.6 mph32%29.89 "Hg4 mi
9:50 AM90 °FClear.6 mph52%29.89 "Hg4 mi
8:50 AM90 °FClear.2 mph52%29.89 "Hg4 mi
7:50 AM84 °FClear.3 mph74%29.86 "Hg4 mi
6:50 AM81 °FClear.3 mph89%29.86 "Hg4 mi
5:50 AM79 °FClear.2 mph94%29.83 "Hg4 mi
4:50 AM79 °FClear.3 mph94%29.80 "Hg5 mi
3:50 AM81 °FClear.2 mph89%29.80 "Hg5 mi
2:50 AM81 °FClear.2 mph89%29.80 "Hg5 mi
1:50 AM82 °FClear.5 mph79%29.80 "Hg5 mi
12:50 AM84 °FClear.6 mph74%29.80 "Hg5 mi
11:50 PM
Apr 18
84 °FClear.5 mph62%29.80 "Hg5 mi
Weather by CustomWeather, © 2014

See weather overview